Weather History for Pensacola, FL

Change the Weather History Date:

Sunday, November 11, 2012

  Actual Average Record
Temperature  
Mean Temperature 68 °F 62 °F  
Max Temperature 75 °F 72 °F 82 °F (2006)
Min Temperature 60 °F 52 °F 33 °F (1996)
Degree Days  
Heating Degree Days 0 5  
Month to date heating degree days 38 42  
Since 1 July heating degree days 67 80  
Cooling Degree Days 3 2  
Month to date cooling degree days 25 25  
Year to date cooling degree days 3029 2575  
Growing Degree Days 17 (Base 50)    
Moisture  
Dew Point 59 °F    
Average Humidity 74    
Maximum Humidity 84    
Minimum Humidity 64    
Precipitation  
Precipitation 0.00 in 0.16 in 5.25 in (1947)
Month to date precipitation 0.31 1.77  
Year to date precipitation 63.62 57.76  
Snow  
Snow 0.00 in 0.00 in 0.00 in (2002)
Month to date snowfall 0.0 0.0  
Since 1 July snowfall 0.0 0.0  
Snow Depth 0.00 in    
Sea Level Pressure  
Sea Level Pressure 30.23 in    
Wind  
Wind Speed 11 mph (ESE)    
Max Wind Speed 22 mph    
Max Gust Speed 30 mph    
Visibility 10 miles    
Events      
T = Trace of Precipitation, MM = Missing Value Source: NWS Daily Summary

Daily Weather History Graph

Daily Weather History Graph

Search for Another Location

Airport:

Trip Planner

Search our weather history database for the weather conditions in past years. The results will help you decide how hot, cold, wet, or windy it might be!

Date:

Astronomy

Nov. 11, 2012 Rise Set
Actual Time 6:11 AM CST 4:53 PM CST
Civil Twilight 5:46 AM CST 5:18 PM CST
Nautical Twilight 5:17 AM CST 5:47 PM CST
Astronomical Twilight 4:49 AM CST 6:16 PM CST
Moon 3:33 AM CST (11/11) 3:10 PM CST (11/11)
Length of Visible Light 11h 32m
Length of Day
10h 41m
Waning Crescent, 7% of the Moon is Illuminated
Nov 11
Waning Crescent
Nov 13
New
Nov 20
First Quarter
Nov 28
Full
Dec 6
Last Quarter

Hourly Weather History & Observations

Time (CST) Temp. Dew Point Humidity Pressure Visibility Wind Dir Wind Speed Gust Speed Precip Events Conditions
12:53 AM 62.1 °F 55.0 °F 78% 30.24 in 10.0 mi East 3.5 mph - N/A   Mostly Cloudy
1:53 AM 61.0 °F 55.0 °F 81% 30.23 in 10.0 mi ENE 6.9 mph - N/A   Mostly Cloudy
2:53 AM 61.0 °F 54.0 °F 78% 30.22 in 10.0 mi ENE 6.9 mph - N/A   Overcast
3:53 AM 62.1 °F 55.9 °F 80% 30.21 in 10.0 mi East 10.4 mph - N/A   Overcast
4:53 AM 63.0 °F 57.0 °F 81% 30.24 in 10.0 mi East 5.8 mph - N/A   Overcast
5:53 AM 63.0 °F 55.0 °F 75% 30.24 in 10.0 mi East 10.4 mph - N/A   Overcast
6:53 AM 62.1 °F 54.0 °F 75% 30.25 in 10.0 mi East 11.5 mph - N/A   Mostly Cloudy
7:53 AM 64.4 °F 57.2 °F 77% 30.26 in 10.0 mi East 9.2 mph - N/A   Overcast
8:53 AM 66.9 °F 59.0 °F 76% 30.29 in 10.0 mi East 11.5 mph - N/A   Overcast
9:53 AM 68.0 °F 60.1 °F 76% 30.28 in 10.0 mi ESE 11.5 mph - N/A   Overcast
10:53 AM 69.8 °F 60.8 °F 73% 30.26 in 10.0 mi East 11.5 mph 21.9 mph N/A   Overcast
11:53 AM 73.9 °F 62.1 °F 66% 30.25 in 10.0 mi ESE 18.4 mph 25.3 mph N/A   Overcast
12:53 PM 73.9 °F 62.1 °F 66% 30.23 in 10.0 mi ESE 16.1 mph 27.6 mph N/A   Mostly Cloudy
1:53 PM 73.0 °F 61.0 °F 66% 30.22 in 10.0 mi ESE 17.3 mph 29.9 mph N/A   Mostly Cloudy
2:53 PM 72.0 °F 60.1 °F 66% 30.22 in 10.0 mi ESE 13.8 mph - N/A   Clear
3:53 PM 71.1 °F 59.0 °F 66% 30.22 in 10.0 mi ESE 16.1 mph - N/A   Clear
4:53 PM 69.1 °F 57.9 °F 68% 30.21 in 10.0 mi ESE 15.0 mph - N/A   Scattered Clouds
5:53 PM 69.1 °F 60.1 °F 73% 30.22 in 10.0 mi ESE 11.5 mph - N/A   Clear
6:53 PM 69.1 °F 59.0 °F 70% 30.22 in 10.0 mi SE 12.7 mph - N/A   Clear
7:53 PM 68.0 °F 60.1 °F 76% 30.22 in 10.0 mi SE 8.1 mph - N/A   Clear
8:53 PM 66.9 °F 61.0 °F 81% 30.22 in 10.0 mi SE 8.1 mph - N/A   Clear
9:53 PM 69.1 °F 61.0 °F 75% 30.22 in 10.0 mi SE 9.2 mph - N/A   Clear
10:53 PM 70.0 °F 62.1 °F 76% 30.22 in 10.0 mi SE 9.2 mph - N/A   Mostly Cloudy
11:53 PM 69.1 °F 61.0 °F 75% 30.20 in 10.0 mi SSE 8.1 mph - N/A   Clear